| time (UTC) | temp C | wind direction | speed KPH | gust KPH | rain 1hr cm | rain 24hr cm | rain mn cm | humidity % | barometer mb |
| 20260505172554 | 17 | 219 | 8.0 | 17.7 | 0.00 | 0.05 | 0.05 | 77 | 1002.3 |
| 20260505171548 | 17 | 52 | 8.0 | 17.7 | 0.00 | 0.05 | 0.05 | 76 | 1001.3 |
| 20260505170543 | 17 | 62 | 8.0 | 17.7 | 0.00 | 0.05 | 0.05 | 75 | 1001.3 |
| 20260505165537 | 17 | 76 | 8.0 | 17.7 | 0.00 | 0.05 | 0.05 | 75 | 1001.2 |
| 20260505164632 | 18 | 115 | 6.4 | 24.1 | 0.00 | 0.05 | 0.05 | 74 | 1001.4 |
| 20260505163626 | 18 | 56 | 6.4 | 17.7 | 0.00 | 0.05 | 0.05 | 74 | 1001.5 |
| 20260505162640 | 18 | 83 | 8.0 | 17.7 | 0.00 | 0.05 | 0.05 | 73 | 1001.7 |
| 20260505161614 | 18 | 78 | 6.4 | 22.5 | 0.00 | 0.05 | 0.05 | 72 | 1001.9 |
| 20260505160608 | 18 | 40 | 8.0 | 24.1 | 0.00 | 0.05 | 0.05 | 71 | 1001.9 |
| 20260505152545 | 19 | 73 | 6.4 | 12.9 | 0.00 | 0.05 | 0.05 | 68 | 1002.1 |
| 20260505151539 | 19 | 81 | 8.0 | 17.7 | 0.00 | 0.05 | 0.05 | 66 | 1002.1 |
| 20260505150634 | 20 | 31 | 6.4 | 14.5 | 0.00 | 0.05 | 0.05 | 63 | 1002.2 |
| 20260505140559 | 20 | 58 | 4.8 | 11.3 | 0.00 | 0.05 | 0.05 | 58 | 1002.4 |
| 20260505124614 | 22 | 97 | 6.4 | 17.7 | 0.00 | 0.05 | 0.05 | 53 | 1003.2 |
| 20260505123608 | 22 | 75 | 9.7 | 17.7 | 0.00 | 0.05 | 0.05 | 53 | 1003.3 |
| 20260505122622 | 22 | 51 | 6.4 | 12.9 | 0.00 | 0.05 | 0.05 | 52 | 1003.3 |
| 20260505121556 | 22 | 337 | 4.8 | 11.3 | 0.00 | 0.05 | 0.05 | 51 | 1003.5 |
| 20260505120550 | 22 | 49 | 4.8 | 14.5 | 0.00 | 0.05 | 0.05 | 55 | 1003.5 |
| 20260505115545 | 22 | 9 | 4.8 | 17.7 | 0.00 | 0.05 | 0.05 | 55 | 1003.7 |
| 20260505114539 | 22 | 64 | 3.2 | 11.3 | 0.00 | 0.05 | 0.05 | 57 | 1003.8 |
| 20260505113633 | 21 | 2 | 4.8 | 6.4 | 0.00 | 0.05 | 0.05 | 56 | 1003.9 |
| 20260505112627 | 21 | 358 | 4.8 | 6.4 | 0.00 | 0.05 | 0.05 | 56 | 1004.0 |
| 20260505111641 | 21 | 69 | 4.8 | 9.7 | 0.00 | 0.05 | 0.05 | 51 | 1004.0 |
| 20260505110615 | 21 | 41 | 6.4 | 12.9 | 0.00 | 0.05 | 0.05 | 52 | 1004.0 |
| 20260505101547 | 22 | 201 | 3.2 | 9.7 | 0.00 | 0.05 | 0.05 | 50 | 1004.3 |
| 20260505100541 | 22 | 38 | 1.6 | 6.4 | 0.00 | 0.05 | 0.05 | 49 | 1004.5 |
| 20260505095536 | 22 | 40 | 3.2 | 6.4 | 0.00 | 0.05 | 0.05 | 48 | 1004.7 |
| 20260505094630 | 22 | 51 | 1.6 | 6.4 | 0.00 | 0.05 | 0.05 | 49 | 1004.8 |
| 20260505093644 | 22 | 71 | 3.2 | 9.7 | 0.00 | 0.05 | 0.05 | 55 | 1004.8 |
| 20260505092619 | 21 | 23 | 1.6 | 9.7 | 0.00 | 0.05 | 0.05 | 58 | 1005.0 |
| 20260505091613 | 21 | 39 | 3.2 | 9.7 | 0.00 | 0.05 | 0.05 | 61 | 1005.1 |
| 20260505090608 | 20 | 54 | 3.2 | 6.4 | 0.00 | 0.05 | 0.05 | 63 | 1005.1 |
| 20260505085622 | 20 | 30 | 1.6 | 6.4 | 0.00 | 0.05 | 0.05 | 63 | 1005.4 |
| 20260505084556 | 19 | 41 | 3.2 | 6.4 | 0.00 | 0.05 | 0.05 | 67 | 1005.4 |
| 20260505083550 | 19 | 63 | 3.2 | 9.7 | 0.00 | 0.05 | 0.05 | 67 | 1005.4 |
| 20260505082545 | 19 | 56 | 3.2 | 6.4 | 0.00 | 0.05 | 0.05 | 68 | 1005.7 |
| 20260505081539 | 19 | 70 | 3.2 | 6.4 | 0.00 | 0.05 | 0.05 | 68 | 1005.6 |
| 20260505080633 | 19 | 65 | 3.2 | 6.4 | 0.00 | 0.05 | 0.05 | 68 | 1005.6 |
| 20260505075627 | 18 | 64 | 3.2 | 6.4 | 0.00 | 0.05 | 0.05 | 69 | 1005.6 |
| 20260505074641 | 18 | 37 | 3.2 | 9.7 | 0.00 | 0.05 | 0.05 | 73 | 1005.6 |
| 20260505073616 | 17 | 31 | 3.2 | 6.4 | 0.00 | 0.05 | 0.05 | 75 | 1005.7 |
| 20260505072650 | 16 | 52 | 1.6 | 3.2 | 0.00 | 0.05 | 0.05 | 77 | 1005.9 |
| 20260505071625 | 16 | 54 | 3.2 | 9.7 | 0.00 | 0.05 | 0.05 | 79 | 1005.9 |
| 20260505070558 | 15 | 51 | 1.6 | 6.4 | 0.00 | 0.05 | 0.05 | 81 | 1006.0 |
| 20260505065553 | 15 | 18 | 1.6 | 3.2 | 0.00 | 0.05 | 0.05 | 83 | 1005.9 |
| 20260505064547 | 15 | 68 | 1.6 | 6.4 | 0.00 | 0.05 | 0.05 | 84 | 1005.9 |
| 20260505063541 | 15 | 62 | 1.6 | 6.4 | 0.00 | 0.05 | 0.05 | 84 | 1005.8 |
| 20260505062635 | 14 | 49 | 1.6 | 9.7 | 0.00 | 0.05 | 0.05 | 84 | 1005.8 |
| 20260505061630 | 14 | 33 | 3.2 | 6.4 | 0.00 | 0.05 | 0.05 | 86 | 1005.8 |
| 20260505060624 | 13 | 28 | 3.2 | 9.7 | 0.00 | 0.05 | 0.05 | 87 | 1005.9 |
| 20260505055658 | 13 | 44 | 3.2 | 9.7 | 0.00 | 0.05 | 0.05 | 87 | 1005.9 |
| 20260505054612 | 13 | 61 | 4.8 | 9.7 | 0.00 | 0.05 | 0.05 | 88 | 1005.9 |
| 20260505053606 | 13 | 76 | 4.8 | 9.7 | 0.00 | 0.05 | 0.05 | 89 | 1005.9 |
| 20260505052621 | 13 | 30 | 3.2 | 9.7 | 0.00 | 0.05 | 0.05 | 90 | 1005.8 |
| 20260505051555 | 12 | 42 | 4.8 | 12.9 | 0.00 | 0.05 | 0.05 | 90 | 1005.9 |
| 20260505050549 | 12 | 48 | 4.8 | 12.9 | 0.00 | 0.05 | 0.05 | 90 | 1005.9 |
| 20260505041621 | 12 | 338 | 3.2 | 11.3 | 0.03 | 0.05 | 0.05 | 93 | 1006.2 |
| 20260505040615 | 12 | 315 | 1.6 | 6.4 | 0.03 | 0.05 | 0.05 | 93 | 1006.1 |
| 20260505035609 | 12 | 0 | 1.6 | 6.4 | 0.03 | 0.05 | 0.05 | 93 | 1006.2 |
| 20260505034604 | 12 | 328 | 0.0 | 3.2 | 0.03 | 0.05 | 0.05 | 92 | 1006.5 |
| 20260505033558 | 12 | 43 | 1.6 | 6.4 | 0.03 | 0.05 | 0.05 | 91 | 1006.5 |
| 20260505032552 | 12 | 0 | 0.0 | 3.2 | 0.03 | 0.05 | 0.05 | 90 | 1006.9 |
| 20260505031546 | 13 | 298 | 1.6 | 3.2 | 0.00 | 0.03 | 0.03 | 89 | 1006.9 |
| 20260505030540 | 13 | 327 | 1.6 | 6.4 | 0.00 | 0.03 | 0.03 | 90 | 1006.9 |
| 20260505025635 | 12 | 268 | 4.8 | 6.4 | 0.00 | 0.03 | 0.03 | 90 | 1007.3 |
| 20260505024629 | 13 | 45 | 1.6 | 6.4 | 0.00 | 0.03 | 0.03 | 90 | 1007.1 |
| 20260505023623 | 13 | 326 | 0.0 | 3.2 | 0.03 | 0.03 | 0.03 | 91 | 1007.3 |
| 20260505022618 | 13 | 301 | 1.6 | 3.2 | 0.03 | 0.03 | 0.03 | 90 | 1007.7 |
| 20260505021611 | 13 | 0.0 | 0.0 | 0.03 | 0.03 | 0.03 | 90 | 1007.7 | |
| 20260505020606 | 13 | 0.0 | 0.0 | 0.03 | 0.03 | 0.03 | 88 | 1007.8 | |
| 20260505015620 | 13 | 315 | 0.0 | 3.2 | 0.03 | 0.03 | 0.03 | 87 | 1007.8 |
| 20260505014615 | 13 | 309 | 0.0 | 3.2 | 0.03 | 0.03 | 0.03 | 84 | 1007.7 |
| 20260505013549 | 13 | 290 | 3.2 | 6.4 | 0.00 | 0.00 | 0.00 | 83 | 1007.7 |
| 20260505012603 | 14 | 316 | 3.2 | 6.4 | 0.00 | 0.00 | 0.00 | 80 | 1007.7 |
| 20260505011557 | 15 | 357 | 3.2 | 6.4 | 0.00 | 0.00 | 0.00 | 77 | 1007.6 |
| 20260505010632 | 15 | 3 | 4.8 | 14.5 | 0.00 | 0.00 | 0.00 | 77 | 1007.5 |
| 20260505005626 | 15 | 14 | 3.2 | 11.3 | 0.00 | 0.00 | 0.00 | 76 | 1007.5 |
| 20260505004620 | 15 | 307 | 1.6 | 3.2 | 0.00 | 0.00 | 0.00 | 76 | 1007.6 |
| 20260505003614 | 15 | 216 | 1.6 | 6.4 | 0.00 | 0.00 | 0.00 | 75 | 1007.7 |
| 20260505002609 | 15 | 352 | 1.6 | 6.4 | 0.00 | 0.00 | 0.00 | 75 | 1007.6 |
| 20260505001603 | 15 | 299 | 1.6 | 6.4 | 0.00 | 0.00 | 0.00 | 76 | 1007.5 |
| 20260505000557 | 15 | 293 | 1.6 | 3.2 | 0.00 | 0.00 | 0.00 | 76 | 1007.7 |
| 20260504235611 | 15 | 333 | 1.6 | 6.4 | 0.00 | 0.00 | 0.00 | 76 | 1007.8 |
| 20260504234546 | 15 | 40 | 1.6 | 6.4 | 0.00 | 0.00 | 0.00 | 76 | 1007.9 |
| 20260504233540 | 15 | 26 | 1.6 | 3.2 | 0.00 | 0.00 | 0.00 | 76 | 1008.1 |
| 20260504232635 | 15 | 42 | 1.6 | 3.2 | 0.00 | 0.00 | 0.00 | 75 | 1008.2 |
| 20260504231627 | 15 | 34 | 0.0 | 3.2 | 0.00 | 0.00 | 0.00 | 75 | 1008.4 |
| 20260504230621 | 15 | 291 | 1.6 | 3.2 | 0.00 | 0.00 | 0.00 | 74 | 1008.4 |
| 20260504225615 | 16 | 286 | 3.2 | 6.4 | 0.00 | 0.00 | 0.00 | 74 | 1008.4 |
| 20260504224609 | 16 | 36 | 1.6 | 6.4 | 0.00 | 0.00 | 0.00 | 74 | 1008.2 |
| 20260504223624 | 16 | 21 | 1.6 | 6.4 | 0.00 | 0.00 | 0.00 | 74 | 1008.3 |
| 20260504222558 | 16 | 304 | 0.0 | 3.2 | 0.00 | 0.00 | 0.00 | 75 | 1008.4 |
| 20260504221552 | 16 | 310 | 1.6 | 3.2 | 0.00 | 0.00 | 0.00 | 74 | 1008.5 |
| 20260504220546 | 16 | 270 | 0.0 | 3.2 | 0.00 | 0.00 | 0.00 | 74 | 1008.7 |
| 20260504215540 | 16 | 270 | 1.6 | 3.2 | 0.00 | 0.00 | 0.00 | 73 | 1008.7 |
| 20260504214634 | 16 | 281 | 1.6 | 6.4 | 0.00 | 0.00 | 0.00 | 72 | 1008.6 |
| 20260504213648 | 16 | 46 | 1.6 | 9.7 | 0.00 | 0.00 | 0.00 | 71 | 1008.5 |
| 20260504212623 | 16 | 317 | 1.6 | 6.4 | 0.00 | 0.00 | 0.00 | 71 | 1008.6 |
| 20260504211617 | 17 | 251 | 1.6 | 9.7 | 0.00 | 0.00 | 0.00 | 70 | 1008.7 |
| 20260504210612 | 16 | 312 | 1.6 | 6.4 | 0.00 | 0.00 | 0.00 | 70 | 1008.6 |